Regional Weather Roundup
Issued by NWS

Home | Current Version | Previous Version | Graphics & Text | Print | Product List | Glossary Off
Versions: 1 2 3 4 5 6 7 8 9 10 11 12 13 14 15 16 17 18 19 20 21 22 23 24 25 26 27 28 29 30 31 32 33 34 35 36 37 38 39 40 41 42 43 44 45 46 47 48 49 50

000
ASUS43 KMKX 200811
RWRWI

WISCONSIN REGIONAL WEATHER ROUNDUP
NATIONAL WEATHER SERVICE MILWAUKEE/SULLIVAN WI
300 AM CDT WED AUG 20 2014

NOTE: "FAIR" INDICATES FEW OR NO CLOUDS BELOW 12,000 FEET WITH NO
SIGNIFICANT WEATHER AND/OR OBSTRUCTIONS TO VISIBILITY.

WIZ001-002-006>008-014>016-023>028-200900-
NORTHWEST WISCONSIN

CITY           SKY/WX    TMP DP  RH WIND       PRES   REMARKS
SUPERIOR ARPT  CLOUDY    61  60  97 NE5       29.82S
ASHLAND        CLOUDY    60  58  92 CALM      29.83S
HAYWARD        CLOUDY    60  60 100 N5        29.83R
SIREN          FOG       57  57  97 CALM      29.83R VSB 1/2
RICE LAKE      CLOUDY    61  59  96 CALM      29.83S
LADYSMITH      CLOUDY    60  59  96 NE8       29.84R
EAU CLAIRE     FOG       62  62 100 CALM      29.81R VSB 1
MENOMONIE      SUNNY     63  62  97 CALM      29.82R
NEW RICHMOND     N/A     60  60 100 CALM      29.83R FOG
OSCEOLA        CLOUDY    60  60 100 CALM      29.85R FOG
$$

WIZ003>005-009-010-017-018-200900-
NORTH CENTRAL WISCONSIN

CITY           SKY/WX    TMP DP  RH WIND       PRES   REMARKS
WOODRUFF       CLOUDY    59  57  91 N8        29.81R
RHINELANDER    CLOUDY    59  57  93 CALM      29.81R
EAGLE RIVER    CLOUDY    58  58  98 N7        29.80S
LAND O LAKES   CLOUDY    57  56  95 NW5       29.82R
PHILLIPS       CLOUDY    59  58  96 NW5       29.81S
TOMAHAWK       CLOUDY    57  56  97 NW6       29.81S
MEDFORD        CLOUDY    58  58  99 N5        29.81S
MERRILL        PTCLDY    57  57 100 CALM      29.80S
$$

WIZ029-030-035-036-043>047-200900-
CENTRAL WISCONSIN

CITY           SKY/WX    TMP DP  RH WIND       PRES   REMARKS
WAUSAU         PTCLDY    61  59  93 W6        29.79R
MOSINEE        CLEAR     59  59 100 CALM      29.80S
MARSHFIELD     FOG       60  59  96 W3        29.81R VSB 1/4
STEVENS POINT  MOCLDY    57  57 100 CALM      29.80R FOG
WAUPACA        CLEAR     61  60  94 CALM      29.79R
WAUTOMA        CLEAR     58  58 100 CALM      29.81R FOG
WISC RAPIDS    PTCLDY    60  59  96 CALM      29.81R
CAMP DOUGLAS   FOG       57  57 100 W2        29.80S VSB 3/4
$$

WIZ011>013-019>022-031-037>040-048>050-200900-
NORTHEAST WISCONSIN

CITY           SKY/WX    TMP DP  RH WIND       PRES   REMARKS
ANTIGO         CLOUDY    59  58  97 CALM      29.80S
STURGEON BAY   CLEAR     63  59  88 NW6       29.77R
GREEN BAY      CLEAR     61  60  97 CALM      29.78R
MANITOWOC      MOCLDY    65  63  93 W5        29.77R
APPLETON       CLEAR     61  59  94 NW5       29.79R
CLINTONVILLE   MOCLDY    59  59 100 CALM      29.78S
OSHKOSH        MOCLDY    63  62  97 CALM      29.78S
$$

WIZ032>034-041-042-053>061-200900-
SOUTHWEST WISCONSIN

CITY           SKY/WX    TMP DP  RH WIND       PRES   REMARKS
LA CROSSE      PTCLDY    67  63  87 S5        29.80R
SPARTA         PTCLDY    58  57  96 CALM      29.82R
VIROQUA        FAIR      63  63 100 CALM      29.83R
BOSCOBEL       MOCLDY    65  63  93 CALM      29.81R
PRAIRIE DU CHI CLEAR     64  62  91 CALM      29.81S
PLATTEVILLE    FAIR      65  63  93 CALM      29.84R
$$

WIZ056-057-062-063-064-067-068-200900-
SOUTH CENTRAL WISCONSIN

CITY           SKY/WX    TMP DP  RH WIND       PRES   REMARKS
BARABOO/DELLS  CLEAR     61  59  93 CALM      29.81R
LONE ROCK      MOCLDY    64  60  87 CALM      29.81S
WATERTOWN      CLEAR     62  62  99 CALM      29.80R
MADISON        CLEAR     64  61  90 CALM      29.81R
MIDDLETON      FAIR      62  62 100 CALM      29.82R
MONROE         CLOUDY    68  63  83 W7        29.82R
JANESVILLE     CLEAR     64  63  94 CALM      29.81R
$$

WIZ051-052-058>065-066-070>072-200900-
SOUTHEAST WISCONSIN

CITY           SKY/WX    TMP DP  RH WIND       PRES   REMARKS
MILWAUKEE      CLEAR     68  62  81 W6        29.78R
WAUKESHA       CLEAR     63  61  94 W6        29.80S
MILWAUKEE/TIMM CLEAR     64  59  82 W3        29.79R
RACINE         CLEAR     67  63  87 W5        29.80R
BURLINGTON     CLEAR     61  60  98 SW3       29.80S
KENOSHA        CLEAR     63  61  93 W7        29.79S
FOND DU LAC    CLEAR     62  59  90 SW3       29.79R
SHEBOYGAN      PTCLDY    64  62  93 W5        29.78R
WEST BEND      CLEAR     64  59  82 W3        29.79R
JUNEAU         CLEAR     62  36  38 SW3       29.81R
$$

LSZ147-162-200900-
LAKE SUPERIOR

STATION/POSITION TIME  TEMP    WIND        PRES    WAVE
                       AIR SEA DIR/SP/G            HT/PER
                 (UTC) (F)     (DEG/KT/KT) (MB)    (FT/S)
W MID LAKE BUOY  0750   57 57  290/  4/  4 1009.4S   1/ 4
DEVILS ISLAND    0800   60     290/  3/  3 1010.1R
PORT WING        0700   61     160/  2/  4 1010.2S
SAXON HARBOR     0700   60      20/  5/  6 1009.8
$$

LMZ867-665-643>646-200900-
LAKE MICHIGAN

STATION/POSITION TIME  TEMP    WIND        PRES    WAVE
                       AIR SEA DIR/SP/G            HT/PER
                 (UTC) (F)     (DEG/KT/KT) (MB)    (FT/S)
N MID LAKE BUOY  0750   62 62  290/ 12/ 14 1005.8S   1/ 5
NORTHPORT PIER   0700   64     330/  9/ 11 1007.1R
SISTER BAY       0741   64     350/ 11/ 12   N/A
KEWAUNEE LAKESHO 0700   65     320/  1/  2 1006.9R
SHEBOYGAN LAKESH 0800   66 67  300/  4/  6 1008.2R
ATWATER BUOY     0800   68     270/  6     1009.5R
MILWAUKEE LAKESH 0700   70     280/  5/  7   N/A
S MID LAKE BUOY  0750   68 66  280/  8/  8 1008.0R   1
KENOSHA   LAKESH 0800   70     270/  7/ 10 1008.5R
$$

TC  - TEMPERATURE IN CELSIUS
VSB - VISIBILITY IN STATUTE MILES
WCI - WIND CHILL INDEX
HX  - HEAT INDEX



USA.gov is the U.S. government's official web portal to all federal, state and local government web resources and services.